Location: Newark
(27.9675°N, 86.8869°E)
Time: 12:51:45
(UTC+00:00)

Altair - Pass Details

Date: 24 October 2019
Orbit: 1502 x 1682 km, 47.2° (Epoch: 20 November)

Event Time Altitude Azimuth Distance (km) Brightness Sun altitude
Rises 02:40:54 0° 220° (SW) 4,630 10.0 28.3°
Reaches altitude 10° 02:43:54 10° 219° (SW) 3,661 9.5 28.8°
Maximum altitude 02:53:06 76° 135° (SE) 1,581 8.4 30.5°
Drops below altitude 10° 03:02:39 10° 52° (NE) 3,791 9.8 32.2°
Sets 03:05:48 0° 51° (NE) 4,803 10.2 32.7°
